Torrington, WY

11:26 PM MST on February 07, 2016 (GMT -0700)
Torrington Municipal

Weather History for KTOR - December, 2013

Change the Weather History Date:

Friday, December 13, 2013

  Actual Average Record
Temperature  
Mean Temperature 31 °F 27 °F  
Max Temperature 43 °F 40 °F 59 °F (2010)
Min Temperature 19 °F 14 °F -4 °F (2000)
Degree Days  
Heating Degree Days 34 38  
Month to date heating degree days 617 483  
Since 1 July heating degree days 2186 2066  
Cooling Degree Days 0 0  
Month to date cooling degree days 0 0  
Year to date cooling degree days 893 678  
Moisture  
Dew Point 21 °F    
Average Humidity 64    
Maximum Humidity 84    
Minimum Humidity 43    
Precipitation  
Precipitation 0.00 in 0.02 in - ()
Month to date precipitation 0.04 0.18  
Year to date precipitation 13.52 14.02  
Sea Level Pressure  
Sea Level Pressure 30.00 in    
Wind  
Wind Speed 9 mph (NW)    
Max Wind Speed 21 mph    
Max Gust Speed 26 mph    
Visibility 10 miles    
Events      
T = Trace of Precipitation, MM = Missing Value Source: NWS Daily Summary

Daily Weather History Graph

Daily Weather History Graph

Search for Another Location

Airport or City:

Trip Planner

Search our weather history database for the weather conditions in past years. The results will help you decide how hot, cold, wet, or windy it might be!

Date:

Astronomy

Dec. 13, 2013 Rise Set
Actual Time 7:16 AM MST 4:25 PM MST
Civil Twilight 6:44 AM MST 4:57 PM MST
Nautical Twilight 6:09 AM MST 5:32 PM MST
Astronomical Twilight 5:35 AM MST 6:06 PM MST
Moon 2:12 PM MST (12/13) 3:38 AM MST (12/13)
Length of Visible Light 10h 12m
Length of Day
9h 08m
Waxing Gibbous, 88% of the Moon is Illuminated
Dec 13
Waxing Gibbous
Dec 17
Full
Dec 25
Last Quarter
Jan 1
New
Jan 7
First Quarter

Hourly Weather History & Observations

Time (MST) Temp. Windchill Dew Point Humidity Pressure Visibility Wind Dir Wind Speed Gust Speed Precip Events Conditions
12:53 AM 26.1 °F 18.4 °F 18.0 °F 71% 29.90 in 10.0 mi SSE 6.9 mph - N/A   Clear
1:53 AM 21.9 °F - 16.0 °F 78% 29.90 in 10.0 mi Calm Calm - N/A   Clear
2:53 AM 21.0 °F - 15.1 °F 78% 29.89 in 10.0 mi Calm Calm - N/A   Clear
3:53 AM 19.0 °F 13.9 °F 14.0 °F 81% 29.89 in 10.0 mi NE 3.5 mph - N/A   Clear
4:53 AM 19.9 °F 13.4 °F 15.1 °F 81% 29.89 in 10.0 mi South 4.6 mph - N/A   Clear
5:53 AM 19.9 °F 8.6 °F 15.1 °F 81% 29.90 in 10.0 mi North 10.4 mph - N/A   Clear
6:53 AM 21.9 °F 15.7 °F 15.1 °F 75% 29.91 in 10.0 mi WNW 4.6 mph - N/A   Clear
7:53 AM 28.0 °F 18.6 °F 15.1 °F 58% 29.92 in 10.0 mi NNW 10.4 mph - N/A   Clear
8:53 AM 33.1 °F 26.9 °F 18.0 °F 54% 29.95 in 10.0 mi NW 6.9 mph - N/A   Clear
9:53 AM 34.0 °F 28.0 °F 19.9 °F 56% 29.95 in 10.0 mi West 6.9 mph - N/A   Clear
10:53 AM 39.0 °F 33.4 °F 21.9 °F 50% 29.94 in 10.0 mi WNW 8.1 mph - N/A   Clear
11:53 AM 42.1 °F 35.2 °F 21.9 °F 45% 29.93 in 10.0 mi NW 12.7 mph - N/A   Clear
12:53 PM 43.0 °F 34.8 °F 21.0 °F 42% 29.93 in 10.0 mi NW 18.4 mph 21.9 mph N/A   Clear
1:53 PM 41.0 °F 34.3 °F 23.0 °F 49% 29.97 in 10.0 mi NW 11.5 mph - N/A   Clear
2:53 PM 39.0 °F 31.8 °F 25.0 °F 57% 30.01 in 10.0 mi NW 11.5 mph - N/A   Partly Cloudy
3:53 PM 37.0 °F 28.5 °F 24.1 °F 59% 30.05 in 10.0 mi NNW 13.8 mph - N/A   Mostly Cloudy
4:53 PM 35.1 °F 31.0 °F 25.0 °F 67% 30.08 in 10.0 mi NNW 4.6 mph - N/A   Overcast
5:53 PM 35.1 °F 27.9 °F 25.0 °F 67% 30.11 in 10.0 mi NNW 9.2 mph - N/A   Overcast
6:53 PM 36.0 °F 28.0 °F 24.1 °F 62% 30.13 in 10.0 mi NNW 11.5 mph - N/A   Overcast
7:53 PM 35.1 °F 27.9 °F 27.0 °F 72% 30.14 in 10.0 mi NW 9.2 mph - N/A   Overcast
8:53 PM 34.0 °F 25.5 °F 27.0 °F 75% 30.15 in 10.0 mi NW 11.5 mph - N/A   Overcast
9:53 PM 34.0 °F 26.6 °F 26.1 °F 73% 30.17 in 10.0 mi NW 9.2 mph - N/A   Overcast
10:53 PM 33.1 °F 26.1 °F 26.1 °F 75% 30.18 in 10.0 mi NW 8.1 mph - N/A   Overcast
11:53 PM 32.0 °F 23.6 °F 26.1 °F 79% 30.18 in 10.0 mi NW 10.4 mph - N/A   Mostly Cloudy